Quillayute, WA

7:34 PM PST on December 12, 2017 (GMT -0800)
Quillayute

Weather History for KUIL - March, 2013

Change the Weather History Date:

Wednesday, March 20, 2013

  Actual Average Record
Temperature  
Mean Temperature 43 °F 44 °F  
Max Temperature 50 °F 52 °F 68 °F (1968)
Min Temperature 35 °F 37 °F 26 °F (1974)
Degree Days  
Heating Degree Days 22 21  
Month to date heating degree days 409 428  
Since 1 July heating degree days 4102 4273  
Cooling Degree Days 0 0  
Month to date cooling degree days 0 0  
Year to date cooling degree days 0 0  
Moisture  
Dew Point 41 °F    
Average Humidity 72    
Maximum Humidity 86    
Minimum Humidity 58    
Precipitation  
Precipitation 0.94 in 0.34 in 1.74 in (2005)
Month to date precipitation 15.67 7.15  
Year to date precipitation 37.78 32.11  
Sea Level Pressure  
Sea Level Pressure 29.51 in    
Wind  
Wind Speed 13 mph (SW)    
Max Wind Speed 30 mph    
Max Gust Speed 37 mph    
Visibility 2 miles    
Events Fog , Rain    
T = Trace of Precipitation, MM = Missing Value Source: NWS Daily Summary

Daily Weather History Graph

Daily Weather History Graph

Search for Another Location

Airport or City:

Trip Planner

Search our weather history database for the weather conditions in past years. The results will help you decide how hot, cold, wet, or windy it might be!

Date:

Astronomy

Mar. 20, 2013 Rise Set
Actual Time 7:20 AM PDT 7:31 PM PDT
Civil Twilight 6:49 AM PDT 8:02 PM PDT
Nautical Twilight 6:13 AM PDT 8:39 PM PDT
Astronomical Twilight 5:35 AM PDT 9:16 PM PDT
Moon 12:48 PM PDT (3/20) 3:28 AM PDT (3/20)
Length of Visible Light 13h 13m
Length of Day
12h 11m
First Quarter, 60% of the Moon is Illuminated
Mar 20
First Quarter
Mar 27
Full
Apr 2
Last Quarter
Apr 10
New
Apr 18
First Quarter

Hourly Weather History & Observations

Time (PDT) Temp. Windchill Dew Point Humidity Pressure Visibility Wind Dir Wind Speed Gust Speed Precip Events Conditions
12:05 AM 48.2 °F - 44.6 °F 87% 29.44 in 1.8 mi SSE 13.8 mph 27.6 mph 0.01 in Rain Light Rain
12:36 AM 48.2 °F - 44.6 °F 87% 29.43 in 1.2 mi SSE 15.0 mph 33.4 mph 0.03 in Rain Light Rain
12:43 AM 48.2 °F - 44.6 °F 87% 29.42 in 1.0 mi SSE 17.3 mph 32.2 mph 0.04 in Rain Light Rain
12:47 AM 48.2 °F - 44.6 °F 87% 29.42 in 1.0 mi SSE 10.4 mph 32.2 mph 0.04 in Rain Light Rain
12:53 AM 48.9 °F - 45.0 °F 86% 29.42 in 1.0 mi SSE 10.4 mph 29.9 mph 0.05 in Rain Light Rain
1:16 AM 48.2 °F - 44.6 °F 87% 29.41 in 0.8 mi SSE 15.0 mph 28.8 mph 0.03 in Rain Light Rain
1:29 AM 48.2 °F - 44.6 °F 87% 29.41 in 0.8 mi South 10.4 mph 24.2 mph 0.05 in Rain Light Rain
1:53 AM 48.9 °F - 46.0 °F 90% 29.39 in 0.5 mi SSE 16.1 mph 25.3 mph 0.08 in Fog , Rain Light Rain
2:14 AM 50.0 °F - 46.4 °F 87% 29.39 in 1.0 mi South 12.7 mph 29.9 mph 0.11 in Rain Rain
2:43 AM 50.0 °F - 46.4 °F 87% 29.38 in 0.8 mi South 17.3 mph 32.2 mph 0.18 in Rain Light Rain
2:53 AM 50.0 °F - 46.9 °F 89% 29.38 in 1.0 mi South 15.0 mph 27.6 mph 0.18 in Rain Light Rain
3:06 AM 50.0 °F - 46.4 °F 87% 29.37 in 0.8 mi South 12.7 mph 26.5 mph 0.06 in Rain Light Rain
3:14 AM 50.0 °F - 46.4 °F 87% 29.36 in 1.0 mi South 11.5 mph 25.3 mph 0.08 in Rain Rain
3:21 AM 50.0 °F - 46.4 °F 87% 29.36 in 0.8 mi South 11.5 mph 27.6 mph 0.10 in Rain Light Rain
3:53 AM 50.0 °F - 46.9 °F 89% 29.34 in 0.8 mi South 9.2 mph 24.2 mph 0.20 in Rain Rain
4:12 AM 50.0 °F - 46.4 °F 87% 29.32 in 1.0 mi South 15.0 mph 24.2 mph 0.04 in Rain Light Rain
4:30 AM 50.0 °F - 46.4 °F 87% 29.31 in 1.5 mi South 15.0 mph 32.2 mph 0.09 in Rain Light Rain
4:43 AM 50.0 °F - 46.4 °F 87% 29.30 in 1.0 mi South 17.3 mph 29.9 mph 0.10 in Rain Light Rain
4:53 AM 50.0 °F - 46.9 °F 89% 29.30 in 1.0 mi South 13.8 mph 28.8 mph 0.12 in Rain Light Rain
5:02 AM 50.0 °F - 46.4 °F 87% 29.29 in 1.8 mi South 12.7 mph 31.1 mph 0.00 in Rain Light Rain
5:09 AM 50.0 °F - 46.4 °F 87% 29.29 in 2.0 mi South 15.0 mph 31.1 mph 0.00 in Rain Light Rain
5:32 AM 50.0 °F - 46.4 °F 87% 29.28 in 1.5 mi South 11.5 mph 26.5 mph 0.02 in Rain Rain
5:39 AM 50.0 °F - 46.4 °F 87% 29.28 in 1.2 mi South 16.1 mph 27.6 mph 0.04 in Rain Light Rain
5:53 AM 50.0 °F - 46.9 °F 89% 29.28 in 1.2 mi South 16.1 mph 31.1 mph 0.06 in Rain Light Rain
6:12 AM 50.0 °F - 46.4 °F 87% 29.28 in 1.5 mi South 13.8 mph 29.9 mph 0.03 in Rain Light Rain
6:19 AM 50.0 °F - 46.4 °F 87% 29.28 in 0.8 mi South 15.0 mph 24.2 mph 0.03 in Rain Light Rain
6:27 AM 50.0 °F - 46.4 °F 87% 29.28 in 1.5 mi SSW 16.1 mph 28.8 mph 0.04 in Rain Light Rain
6:43 AM 50.0 °F - 46.4 °F 87% 29.28 in 2.0 mi SSW 16.1 mph 25.3 mph 0.07 in Rain Light Rain
6:53 AM 50.0 °F - 46.0 °F 86% 29.29 in 3.0 mi SSW 12.7 mph 29.9 mph 0.08 in Rain Light Rain
6:59 AM 50.0 °F - 46.4 °F 87% 29.29 in 1.8 mi SSW 18.4 mph 31.1 mph 0.00 in Rain Light Rain
7:23 AM 48.2 °F - 44.6 °F 87% 29.31 in 3.0 mi SW 17.3 mph 31.1 mph 0.00 in Rain Light Rain
7:34 AM 48.2 °F - 44.6 °F 87% 29.32 in 2.5 mi SW 16.1 mph 29.9 mph 0.00 in   Overcast
7:53 AM 48.0 °F - 44.1 °F 86% 29.34 in 1.8 mi SW 15.0 mph 28.8 mph 0.00 in   Overcast
8:01 AM 48.2 °F - 44.6 °F 87% 29.34 in 2.0 mi SW 11.5 mph 20.7 mph N/A   Overcast
8:08 AM 48.2 °F - 44.6 °F 87% 29.35 in 1.5 mi SW 20.7 mph 36.8 mph N/A   Overcast
8:19 AM 46.4 °F 40.1 °F 42.8 °F 87% 29.36 in 2.5 mi SW 15.0 mph 35.7 mph 0.00 in   Overcast
8:28 AM 46.4 °F 41.9 °F 42.8 °F 87% 29.37 in 3.0 mi SSW 9.2 mph 27.6 mph 0.00 in   Overcast
8:38 AM 46.4 °F 41.5 °F 42.8 °F 87% 29.37 in 1.5 mi SSW 10.4 mph 19.6 mph 0.00 in Rain Light Rain
8:41 AM 46.4 °F 40.7 °F 44.6 °F 93% 29.37 in 0.8 mi SW 12.7 mph 23.0 mph 0.00 in Rain Light Rain
8:53 AM 46.9 °F - 43.0 °F 86% 29.39 in 0.5 mi SSW 13.8 mph - 0.02 in Fog , Rain Rain
9:13 AM 46.4 °F 41.5 °F 42.8 °F 87% 29.40 in 1.0 mi SSW 10.4 mph 25.3 mph 0.02 in Rain Light Rain
9:19 AM 46.4 °F 40.4 °F 42.8 °F 87% 29.40 in 2.0 mi SW 13.8 mph 19.6 mph 0.02 in Rain Light Rain
9:26 AM 46.4 °F 40.4 °F 42.8 °F 87% 29.40 in 3.0 mi SW 13.8 mph 21.9 mph 0.02 in   Overcast
9:29 AM 46.4 °F 41.1 °F 42.8 °F 87% 29.41 in 2.5 mi SSW 11.5 mph 21.9 mph 0.02 in   Overcast
9:41 AM 46.4 °F 40.1 °F 42.8 °F 87% 29.42 in 1.2 mi SW 15.0 mph 19.6 mph 0.02 in Rain Light Rain
9:43 AM 46.4 °F 39.5 °F 42.8 °F 87% 29.42 in 0.8 mi SW 17.3 mph - 0.02 in Rain Light Rain
9:51 AM 46.4 °F 40.7 °F 42.8 °F 87% 29.42 in 1.0 mi SW 12.7 mph 25.3 mph 0.04 in Rain Light Rain
9:53 AM 46.9 °F - 43.0 °F 86% 29.42 in 2.0 mi SW 11.5 mph 25.3 mph 0.04 in Rain Light Rain
10:03 AM 46.4 °F 40.1 °F 42.8 °F 87% 29.43 in 1.8 mi SW 15.0 mph 21.9 mph 0.00 in Rain Light Rain
10:10 AM 46.4 °F 40.4 °F 42.8 °F 87% 29.43 in 1.2 mi SW 13.8 mph 23.0 mph 0.00 in Rain Light Rain
10:20 AM 46.4 °F 40.7 °F 42.8 °F 87% 29.43 in 1.8 mi SW 12.7 mph 20.7 mph 0.01 in Rain Light Rain
10:26 AM 46.4 °F 40.7 °F 42.8 °F 87% 29.43 in 1.2 mi WSW 12.7 mph - 0.01 in Rain Light Rain
10:41 AM 46.4 °F 39.0 °F 42.8 °F 87% 29.45 in 1.5 mi WSW 19.6 mph 25.3 mph 0.03 in Rain Light Rain
10:53 AM 46.0 °F 39.0 °F 42.1 °F 86% 29.46 in 1.8 mi SW 17.3 mph 25.3 mph 0.03 in Rain Light Rain
10:58 AM 46.4 °F 38.3 °F 42.8 °F 87% 29.46 in 1.0 mi WSW 23.0 mph 32.2 mph 0.00 in Rain Light Rain
11:05 AM 46.4 °F 39.5 °F 42.8 °F 87% 29.47 in 1.0 mi WSW 17.3 mph 32.2 mph 0.01 in Rain Light Rain
11:13 AM 46.4 °F 39.8 °F 42.8 °F 87% 29.47 in 2.0 mi WSW 16.1 mph 28.8 mph 0.02 in Rain Light Rain
11:33 AM 46.4 °F 38.7 °F 41.0 °F 81% 29.49 in 3.0 mi WSW 20.7 mph 26.5 mph 0.02 in Rain Light Rain
11:39 AM 46.4 °F 38.5 °F 39.2 °F 76% 29.49 in 2.5 mi WSW 21.9 mph 31.1 mph 0.03 in Rain Light Rain
11:53 AM 46.0 °F 38.5 °F 41.0 °F 83% 29.52 in 2.0 mi WSW 19.6 mph 28.8 mph 0.03 in Rain Light Rain
12:12 PM 46.4 °F 39.0 °F 41.0 °F 81% 29.53 in 3.0 mi WSW 19.6 mph 26.5 mph 0.01 in Rain Light Rain
12:39 PM 44.6 °F 36.4 °F 39.2 °F 81% 29.57 in 2.0 mi WSW 20.7 mph 34.5 mph 0.01 in Rain Light Rain
12:53 PM 45.0 °F 37.4 °F 39.0 °F 80% 29.59 in 3.0 mi West 18.4 mph 32.2 mph 0.01 in Rain Light Rain
1:07 PM 44.6 °F 37.4 °F 39.2 °F 81% 29.60 in 1.8 mi West 16.1 mph 29.9 mph 0.00 in Rain Light Rain
1:15 PM 44.6 °F 36.4 °F 37.4 °F 76% 29.61 in 1.2 mi West 20.7 mph 33.4 mph 0.02 in Rain Light Rain
1:19 PM 44.6 °F 36.9 °F 39.2 °F 81% 29.61 in 2.0 mi West 18.4 mph 33.4 mph 0.02 in Rain Light Rain
1:28 PM 44.6 °F 37.2 °F 39.2 °F 81% 29.63 in 1.2 mi West 17.3 mph 26.5 mph 0.03 in Rain Light Rain
1:40 PM 44.6 °F 36.1 °F 39.2 °F 81% 29.64 in 1.5 mi West 21.9 mph 31.1 mph 0.04 in Rain Light Rain
1:53 PM 44.1 °F 36.2 °F 39.0 °F 82% 29.65 in 2.5 mi West 18.4 mph 31.1 mph 0.05 in Rain Light Rain
2:02 PM 44.6 °F 36.6 °F 39.2 °F 81% 29.66 in 1.5 mi West 19.6 mph 29.9 mph 0.01 in Rain Light Rain
2:09 PM 44.6 °F 36.6 °F 39.2 °F 81% 29.66 in 3.0 mi West 19.6 mph 33.4 mph 0.01 in Rain Light Rain
2:17 PM 44.6 °F 37.4 °F 39.2 °F 81% 29.67 in 1.8 mi West 16.1 mph 29.9 mph 0.02 in Rain Light Rain
2:39 PM 44.6 °F 37.4 °F 37.4 °F 76% 29.69 in 3.0 mi West 16.1 mph 26.5 mph N/A Rain Light Rain
2:46 PM 44.6 °F 37.2 °F 37.4 °F 76% 29.70 in 2.5 mi West 17.3 mph 29.9 mph 0.03 in Rain Light Rain
2:53 PM 45.0 °F 37.4 °F 37.9 °F 76% 29.71 in 2.5 mi West 18.4 mph 33.4 mph 0.03 in Rain Light Rain
3:04 PM 44.6 °F 38.1 °F 37.4 °F 76% 29.72 in 3.0 mi West 13.8 mph 26.5 mph 0.00 in   Haze
3:15 PM 44.6 °F 38.1 °F 37.4 °F 76% 29.72 in 2.5 mi West 13.8 mph 20.7 mph 0.00 in   Haze
3:28 PM 46.4 °F 39.5 °F 37.4 °F 71% 29.74 in 2.5 mi West 17.3 mph 32.2 mph 0.00 in   Haze
3:53 PM 46.0 °F 39.9 °F 36.0 °F 68% 29.76 in 2.5 mi West 13.8 mph 27.6 mph 0.00 in   Haze
4:39 PM 46.4 °F 38.5 °F 33.8 °F 62% 29.79 in 3.0 mi West 21.9 mph 28.8 mph N/A   Haze
4:53 PM 46.0 °F 38.3 °F 32.0 °F 58% 29.81 in 3.0 mi West 20.7 mph 29.9 mph N/A   Haze
5:44 PM 44.6 °F 38.8 °F 33.8 °F 66% 29.84 in 2.5 mi West 11.5 mph 29.9 mph 0.01 in Rain Light Rain
5:53 PM 44.1 °F 37.1 °F 30.0 °F 58% 29.85 in 3.0 mi WNW 15.0 mph 33.4 mph 0.01 in   Haze
6:22 PM 42.8 °F 35.4 °F 32.0 °F 66% 29.86 in 2.5 mi West 15.0 mph 23.0 mph 0.00 in Rain Light Rain
6:32 PM 42.8 °F 35.8 °F 33.8 °F 70% 29.86 in 3.0 mi West 13.8 mph 26.5 mph 0.00 in   Haze
6:53 PM 43.0 °F 37.7 °F 30.9 °F 62% 29.88 in 3.0 mi WNW 9.2 mph 20.7 mph 0.00 in   Haze
7:53 PM 41.0 °F 35.2 °F 33.1 °F 73% 29.92 in 3.0 mi WNW 9.2 mph 23.0 mph 0.01 in Rain Light Rain
8:53 PM 42.1 °F 36.1 °F 30.0 °F 62% 29.95 in 5.0 mi West 10.4 mph 19.6 mph 0.00 in   Haze
9:53 PM 42.1 °F 36.1 °F 32.0 °F 67% 29.99 in 5.0 mi WNW 10.4 mph 23.0 mph N/A   Haze
10:53 PM 37.4 °F - 30.2 °F 75% 30.00 in 5.0 mi Calm Calm - N/A   Haze
11:53 PM 39.0 °F - 32.0 °F 76% 30.04 in 5.0 mi Calm Calm - 0.00 in Rain Light Rain